Change the Weather History Date:

Saturday, May 25, 2013

  Actual Average Record
Temperature  
Mean Temperature 47 °F -  
Max Temperature 55 °F 68 °F 81 °F (2012)
Min Temperature 38 °F 47 °F 38 °F (2013)
Degree Days  
Heating Degree Days 18 8  
Month to date heating degree days 257 268  
Since 1 July heating degree days 6557 6710  
Cooling Degree Days 0 1  
Month to date cooling degree days 19 12  
Year to date cooling degree days 27 16  
Moisture  
Dew Point 38 °F    
Average Humidity 71    
Maximum Humidity 92    
Minimum Humidity 50    
Precipitation  
Precipitation 0.00 in 0.13 in 0.90 in (2011)
Month to date precipitation 2.17 3.26  
Year to date precipitation 13.29 12.11  
Sea Level Pressure  
Sea Level Pressure 30.37 in    
Wind  
Wind Speed 4 mph (NE)    
Max Wind Speed 10 mph    
Max Gust Speed 14 mph    
Visibility 10 miles    
Events      
T = Trace of Precipitation, MM = Missing Value Source: NWS Daily Summary

Daily Weather History Graph

Daily Weather History Graph

Search for Another Location

Airport or City:

Trip Planner

Search our weather history database for the weather conditions in past years. The results will help you decide how hot, cold, wet, or windy it might be!

Date:

Astronomy

May. 25, 2013 Rise Set
Actual Time 5:21 AM CDT 8:16 PM CDT
Civil Twilight 4:47 AM CDT 8:49 PM CDT
Nautical Twilight 4:05 AM CDT 9:32 PM CDT
Astronomical Twilight 3:16 AM CDT 10:21 PM CDT
Moon 9:03 PM CDT (5/25) 5:48 AM CDT (5/25)
Length of Visible Light 16h 02m
Length of Day
14h 55m
Full, 100% of the Moon is Illuminated
May 25
Full
May 31
Last Quarter
Jun 8
New
Jun 16
First Quarter
Jun 23
Full

Hourly Weather History & Observations

Time (CDT) Temp. Windchill Dew Point Humidity Pressure Visibility Wind Dir Wind Speed Gust Speed Precip Events Conditions
12:52 AM 37.9 °F - 36.0 °F 93% 30.38 in 10.0 mi Calm Calm - N/A   Clear
1:52 AM 39.9 °F - 37.0 °F 89% 30.35 in 10.0 mi Calm Calm - N/A   Clear
2:52 AM 39.0 °F - 37.0 °F 93% 30.35 in 10.0 mi Calm Calm - N/A   Clear
3:52 AM 39.9 °F 37.8 °F 37.0 °F 89% 30.38 in 10.0 mi WNW 3.5 mph - N/A   Clear
4:52 AM 41.0 °F 37.1 °F 37.9 °F 89% 30.35 in 10.0 mi NNE 5.8 mph - N/A   Clear
5:52 AM 44.1 °F - 39.9 °F 85% 30.38 in 10.0 mi Calm Calm - N/A   Mostly Cloudy
6:52 AM 46.0 °F - 39.9 °F 79% 30.41 in 10.0 mi Calm Calm - N/A   Mostly Cloudy
7:52 AM 48.0 °F - 39.9 °F 74% 30.41 in 10.0 mi NNE 4.6 mph - N/A   Overcast
8:52 AM 51.1 °F - 41.0 °F 68% 30.42 in 10.0 mi Calm Calm - N/A   Overcast
9:52 AM 51.1 °F - 42.1 °F 71% 30.41 in 10.0 mi NE 8.1 mph - N/A   Overcast
10:52 AM 48.9 °F - 41.0 °F 74% 30.42 in 10.0 mi NE 6.9 mph - N/A   Overcast
11:52 AM 50.0 °F - 39.9 °F 68% 30.41 in 10.0 mi ENE 6.9 mph - N/A   Overcast
12:52 PM 48.9 °F - 39.9 °F 71% 30.40 in 10.0 mi ENE 3.5 mph - N/A   Overcast
1:52 PM 50.0 °F - 39.9 °F 68% 30.37 in 10.0 mi ENE 10.4 mph - N/A   Mostly Cloudy
2:52 PM 52.0 °F - 39.9 °F 63% 30.35 in 10.0 mi ENE 6.9 mph - N/A   Scattered Clouds
3:52 PM 53.1 °F - 37.0 °F 55% 30.35 in 10.0 mi ENE 4.6 mph - N/A   Overcast
4:52 PM 54.0 °F - 35.1 °F 49% 30.34 in 10.0 mi ENE 5.8 mph - N/A   Overcast
5:52 PM 53.1 °F - 37.0 °F 55% 30.33 in 10.0 mi NE 6.9 mph - N/A   Overcast
6:52 PM 50.0 °F - 37.0 °F 61% 30.33 in 10.0 mi NNE 6.9 mph - N/A   Overcast
7:52 PM 48.9 °F - 36.0 °F 61% 30.32 in 10.0 mi NNE 4.6 mph - N/A   Overcast
8:52 PM 48.0 °F - 35.1 °F 61% 30.32 in 10.0 mi NNE 4.6 mph - N/A   Overcast
9:52 PM 44.1 °F 41.5 °F 36.0 °F 73% 30.33 in 10.0 mi NNE 4.6 mph - N/A   Mostly Cloudy
10:52 PM 41.0 °F - 35.1 °F 79% 30.35 in 10.0 mi Calm Calm - N/A   Clear
11:52 PM 39.0 °F - 36.0 °F 89% 30.34 in 10.0 mi Calm Calm - N/A   Clear